This demonstration page uses our WeatherBlox Daily Observations layout. Learn more.

36.17497, -115.13722

Hourly Observations for January 21, 2018

Temp ( °F °C ) Dew Point ( °F °C ) Humidity (%) Winds ( mph kmh ) Pressure ( in mb ) Visibility ( mi km ) Precip ( " mm )
12:53 am 00:53 Clear 43 6.1 13 -10.6 29 29 N 13 20 30.19 1022 10 16.0934 0 0
1:53 am 01:53 Clear 42 5.6 13 -10.6 30 30 N 14 22 30.2 1023 10 16.0934 0 0
2:53 am 02:53 Clear 42 5.6 13 -10.6 30 30 N 9 15 30.21 1023 10 16.0934 0 0
3:53 am 03:53 Clear 41 5 13 -10.6 32 32 NNW 10 17 30.23 1024 10 16.0934 0 0
4:53 am 04:53 Clear 42 5.6 13 -10.6 30 30 NNW 8 13 30.24 1024 10 16.0934 0 0
5:53 am 05:53 Clear 39 3.9 14 -10 36 36 NNE 10 17 30.28 1025 10 16.0934 0 0
6:53 am 06:53 Sunny 39 3.9 14 -10 36 36 N 14 22 30.29 1026 10 16.0934 0 0
7:53 am 07:53 Sunny 41 5 14 -10 33 33 N 10 17 30.32 1027 10 16.0934 0 0
8:53 am 08:53 Sunny 45 7.2 14 -10 29 29 N 12 19 30.35 1028 10 16.0934 0 0
9:53 am 09:53 Sunny 48 8.9 13 -10.6 24 24 N 15 24 30.35 1028 10 16.0934 0 0
10:53 am 10:53 Sunny 50 10 13 -10.6 22 22 N 17 28 30.35 1028 10 16.0934 0 0
11:53 am 11:53 Sunny 51 10.6 12 -11.1 21 21 N 16 26 30.32 1027 10 16.0934 0 0
12:53 pm 12:53 Sunny 52 11.1 11 -11.7 19 19 N 12 19 30.31 1027 10 16.0934 0 0
1:53 pm 13:53 Sunny 54 12.2 11 -11.7 18 18 NW 18 30 30.3 1026 10 16.0934 0 0
2:53 pm 14:53 Sunny 54 12.2 11 -11.7 18 18 N 8 13 30.31 1026 10 16.0934 0 0
3:53 pm 15:53 Sunny 54 12.2 10 -12.2 17 17 N 9 15 30.32 1027 10 16.0934 0 0
4:53 pm 16:53 Sunny 49 9.4 15 -9.4 26 26 ESE 6 9 30.32 1027 10 16.0934 0 0
5:53 pm 17:53 Clear 47 8.3 16 -8.9 29 29 ESE 5 7 30.34 1028 10 16.0934 0 0
6:53 pm 18:53 Clear 47 8.3 16 -8.9 29 29 SSE 5 7 30.35 1028 10 16.0934 0 0
7:53 pm 19:53 Clear 45 7.2 17 -8.3 33 33 Calm 30.36 1028 10 16.0934 0 0
8:53 pm 20:53 Clear 42 5.6 20 -6.7 41 41 W 5 7 30.38 1029 10 16.0934 0 0
9:53 pm 21:53 Clear 40 4.4 21 -6.1 47 47 NNW 5 7 30.39 1029 10 16.0934 0 0
10:53 pm 22:53 Clear 40 4.4 21 -6.1 47 47 Calm 30.39 1029 10 16.0934 0 0
11:53 pm 23:53 Clear 38 3.3 22 -5.6 52 52 Calm 30.39 1029 10 16.0934 0 0

Powered by AerisWeather